WGS 10 (USA 291)

Last updated on Wed Mar 11 2026 00:02:55 GMT+0000 (Coordinated Universal Time)

1 44071U 19014A 26069.51571015 .00000048 00000+0 00000+0 0 9999 2 44071 0.0181 147.1099 0000528 237.9288 29.0757 1.00272198 25628
UTC large
Height (km)
Speed (km/s)
/
Latitude / Longitude
Inclination (degrees)
Orbital Period (minutes)
Azimuth
Elevation
Range (km)
Doppler Factor

Next 0 passes for location: London (51.5072 / 0.1276)

Sorry there are no passes over London.